This demonstration page uses our WeatherBlox Daily Observations layout. Learn more.

38.89511, -77.03637

Hourly Observations for February 3, 2015

Temp ( °F °C ) Dew Point ( °F °C ) Humidity (%) Winds ( mph kmh ) Pressure ( in mb ) Visibility ( mi km ) Precip ( " mm )
12:52 am 00:52 Clear 27 -3 7 -14 43 43 NW 16 26 30.15 1021 10 16.09344 0 0
1:52 am 01:52 Clear 25 -4 7 -14 46 46 NW 9 15 30.18 1022 10 16.09344 0 0
2:52 am 02:52 Clear 25 -4 7 -14 46 46 NNW 15 24 30.21 1023 10 16.09344 0 0
3:52 am 03:52 Clear 25 -4 7 -14 46 46 NW 10 17 30.21 1023 10 16.09344 0 0
4:52 am 04:52 Mostly Cloudy 25 -4 7 -14 46 46 NNW 14 22 30.24 1024 10 16.09344 0 0
5:52 am 05:52 Mostly Cloudy 25 -4 7 -14 46 46 N 14 22 30.24 1024 10 16.09344 0 0
6:52 am 06:52 Mostly Cloudy 25 -4 7 -14 46 46 NW 9 15 30.27 1025 10 16.09344 0 0
7:52 am 07:52 Cloudy 25 -4 7 -14 46 46 NNW 9 15 30.33 1027 10 16.09344 0 0
8:52 am 08:52 Cloudy 27 -3 5 -15 39 39 WNW 7 11 30.36 1028 10 16.09344 0 0
9:52 am 09:52 Cloudy 28 -2 5 -15 37 37 NW 7 11 30.39 1029 10 16.09344 0 0
10:52 am 10:52 Partly Cloudy 30 -1 5 -15 34 34 W 10 17 30.39 1029 10 16.09344 0 0
11:52 am 11:52 Mostly Sunny 34 1 7 -14 32 32 W 8 13 30.39 1029 10 16.09344 0 0
12:52 pm 12:52 Mostly Sunny 36 2 7 -14 30 30 WNW 9 15 30.36 1028 10 16.09344 0 0
1:52 pm 13:52 Mostly Sunny 37 3 5 -15 26 26 WNW 12 19 30.33 1027 10 16.09344 0 0
2:52 pm 14:52 Mostly Sunny 37 3 7 -14 28 28 SW 9 15 30.3 1026 10 16.09344 0 0
3:52 pm 15:52 Mostly Sunny 37 3 5 -15 26 26 WSW 7 11 30.3 1026 10 16.09344 0 0
4:52 pm 16:52 Partly Cloudy 37 3 5 -15 26 26 SW 6 9 30.3 1026 10 16.09344 0 0
5:52 pm 17:52 Mostly Clear 34 1 12 -11 41 41 S 7 11 30.33 1027 10 16.09344 0 0
6:52 pm 18:52 Mostly Clear 32 0 16 -9 51 51 S 6 9 30.33 1027 10 16.09344 0 0
7:52 pm 19:52 Clear 32 0 12 -11 44 44 S 5 7 30.33 1027 10 16.09344 0 0
8:52 pm 20:52 Clear 30 -1 14 -10 51 51 S 6 9 30.33 1027 10 16.09344 0 0
9:52 pm 21:52 Clear 32 0 12 -11 44 44 SSE 13 20 30.33 1027 10 16.09344 0 0
10:52 pm 22:52 Clear 30 -1 16 -9 55 55 SSE 9 15 30.33 1027 10 16.09344 0 0

Powered by AerisWeather